Location: Sabalos
(43.2860°N, 0.1414°E)
Time: 08:40:33
(UTC+00:00)

COSMOS 2428 - Pass Details

Date: 05 July 2020
Orbit: 844 x 859 km, 70.9° (Epoch: 15 August)

Event Time Altitude Azimuth Distance (km) Brightness Sun altitude
Exits shadow 21:57:28 - 208° (SSW) 2,695 5.0 -17.9°
Reaches altitude 10° 21:58:05 10° 209° (SSW) 2,457 4.8 -18.0°
Maximum altitude 22:03:44 77° 295° (WNW) 869 2.8 -18.5°
Drops below altitude 10° 22:09:25 10° 22° (NNE) 2,475 5.7 -19.0°
Sets 22:11:53 0° 24° (NNE) 3,415 6.4 -19.2°
